DAL1659 KSLC-KLAX

Flight info

Callsign DAL1659
Flight time 1h 35m
Altitude 34000
Route ARCHZ1 WINEN LAKRR Q73 HAKMN ANJLL4
Aircraft B739/M-SDE2E3FGHIRWXY/LB1

Departure

Time 2026-04-26 01:40
Airport Salt Lake City International Airport (KSLC)

Arrival

Time 2026-04-26 03:16
Airport Los Angeles International Airport (KLAX)
Time Latitude Longitude Altitude Speed Heading
2026-04-26 01:10 40.78502 -111.98699 4233 ft 0 kts
2026-04-26 01:29 40.78499 -111.98700 4232 ft 2 kts
2026-04-26 01:29 40.78483 -111.98703 4232 ft 2 kts
2026-04-26 01:30 40.78466 -111.98704 4232 ft 2 kts 355°
2026-04-26 01:30 40.78450 -111.98699 4233 ft 2 kts 307°
2026-04-26 01:30 40.78446 -111.98681 4233 ft 1 kts 268°
2026-04-26 01:30 40.78446 -111.98677 4233 ft 0 kts 267°
2026-04-26 01:33 40.78446 -111.98679 4233 ft 1 kts 267°
2026-04-26 01:34 40.78445 -111.98692 4233 ft 3 kts 266°
2026-04-26 01:34 40.78443 -111.98729 4233 ft 5 kts 265°
2026-04-26 01:34 40.78440 -111.98788 4233 ft 7 kts 265°
2026-04-26 01:34 40.78433 -111.98862 4233 ft 9 kts 264°
2026-04-26 01:35 40.78428 -111.98949 4233 ft 10 kts 265°
2026-04-26 01:35 40.78422 -111.99047 4234 ft 11 kts 265°
2026-04-26 01:35 40.78415 -111.99156 4233 ft 12 kts 265°
2026-04-26 01:35 40.78410 -111.99270 4233 ft 12 kts 268°
2026-04-26 01:36 40.78419 -111.99381 4234 ft 12 kts 268°
2026-04-26 01:36 40.78379 -111.99428 4235 ft 8 kts 181°
2026-04-26 01:36 40.78325 -111.99427 4235 ft 8 kts 176°
2026-04-26 01:37 40.78197 -111.99414 4235 ft 10 kts 175°
2026-04-26 01:37 40.78127 -111.99411 4236 ft 10 kts 181°
2026-04-26 01:37 40.78056 -111.99424 4236 ft 10 kts 192°
2026-04-26 01:37 40.77984 -111.99440 4236 ft 10 kts 182°
2026-04-26 01:38 40.77912 -111.99434 4235 ft 10 kts 175°
2026-04-26 01:38 40.77837 -111.99425 4237 ft 11 kts 175°
2026-04-26 01:38 40.77756 -111.99418 4237 ft 12 kts 176°
2026-04-26 01:38 40.77687 -111.99410 4237 ft 9 kts 172°
2026-04-26 01:39 40.77621 -111.99399 4236 ft 10 kts 176°
2026-04-26 01:39 40.77550 -111.99403 4237 ft 11 kts 202°
2026-04-26 01:39 40.77522 -111.99486 4238 ft 11 kts 277°
2026-04-26 01:39 40.77570 -111.99552 4238 ft 12 kts 345°
2026-04-26 01:40 40.77818 -111.99587 4237 ft 70 kts 354°
2026-04-26 01:40 40.78525 -111.99670 4235 ft 132 kts 355°
2026-04-26 01:40 40.79607 -111.99813 4294 ft 174 kts 353°
2026-04-26 01:40 40.80810 -111.99972 4948 ft 177 kts 354°
2026-04-26 01:41 40.82055 -112.00115 5630 ft 180 kts 355°
2026-04-26 01:41 40.83331 -112.00296 6159 ft 194 kts 346°
2026-04-26 01:41 40.84476 -112.01366 6328 ft 217 kts 301°
2026-04-26 01:41 40.84797 -112.03380 6501 ft 239 kts 260°
2026-04-26 01:42 40.84144 -112.05470 6745 ft 258 kts 240°
2026-04-26 01:42 40.83206 -112.07615 7109 ft 276 kts 240°
2026-04-26 01:42 40.82255 -112.09818 7983 ft 276 kts 240°
2026-04-26 01:42 40.81329 -112.12045 8889 ft 277 kts 241°
2026-04-26 01:43 40.80421 -112.14299 9719 ft 279 kts 242°
2026-04-26 01:43 40.79532 -112.16560 10409 ft 286 kts 242°
2026-04-26 01:43 40.78575 -112.19028 10607 ft 311 kts 242°
2026-04-26 01:43 40.77570 -112.21630 10791 ft 333 kts 242°
2026-04-26 01:44 40.76451 -112.24385 11171 ft 347 kts 235°
2026-04-26 01:44 40.74739 -112.26628 11826 ft 350 kts 213°
2026-04-26 01:44 40.72528 -112.27959 12603 ft 352 kts 194°
2026-04-26 01:44 40.70114 -112.28527 13385 ft 354 kts 189°
2026-04-26 01:45 40.67651 -112.28984 14048 ft 358 kts 188°
2026-04-26 01:45 40.65175 -112.29436 14684 ft 362 kts 189°
2026-04-26 01:45 40.62668 -112.29918 15335 ft 364 kts 189°
2026-04-26 01:45 40.60160 -112.30419 15968 ft 368 kts 190°
2026-04-26 01:46 40.57617 -112.30936 16585 ft 372 kts 191°
2026-04-26 01:46 40.55080 -112.31629 17189 ft 374 kts 197°
2026-04-26 01:46 40.52578 -112.32624 17799 ft 377 kts 199°
2026-04-26 01:46 40.50066 -112.33686 18363 ft 380 kts 200°
2026-04-26 01:47 40.47540 -112.34761 18927 ft 382 kts 200°
2026-04-26 01:47 40.45002 -112.35830 19499 ft 384 kts 200°
2026-04-26 01:47 40.42452 -112.36890 20065 ft 386 kts 200°
2026-04-26 01:47 40.39883 -112.37948 20610 ft 388 kts 200°
2026-04-26 01:48 40.37296 -112.39007 21157 ft 390 kts 200°
2026-04-26 01:48 40.34692 -112.40069 21712 ft 392 kts 200°
2026-04-26 01:48 40.32078 -112.41133 22249 ft 394 kts 200°
2026-04-26 01:48 40.29449 -112.42202 22702 ft 397 kts 200°
2026-04-26 01:49 40.26803 -112.43279 22688 ft 399 kts 200°
2026-04-26 01:49 40.24167 -112.44349 22693 ft 395 kts 200°
2026-04-26 01:49 40.21540 -112.45414 22701 ft 394 kts 200°
2026-04-26 01:49 40.18946 -112.46488 22707 ft 394 kts 202°
2026-04-26 01:50 40.16431 -112.47944 22879 ft 397 kts 211°
2026-04-26 01:50 40.14013 -112.49676 23451 ft 396 kts 211°
2026-04-26 01:50 40.11598 -112.51403 24010 ft 394 kts 211°
2026-04-26 01:50 40.09187 -112.53119 24474 ft 395 kts 211°
2026-04-26 01:51 40.06766 -112.54834 24875 ft 398 kts 211°
2026-04-26 01:51 40.04319 -112.56560 25259 ft 400 kts 211°
2026-04-26 01:51 40.01858 -112.58291 25645 ft 403 kts 211°
2026-04-26 01:51 39.99381 -112.60029 26067 ft 405 kts 211°
2026-04-26 01:52 39.96887 -112.61778 26482 ft 406 kts 211°
2026-04-26 01:52 39.94394 -112.63524 26864 ft 408 kts 211°
2026-04-26 01:52 39.91916 -112.65258 27227 ft 411 kts 211°
2026-04-26 01:52 39.89388 -112.67026 27587 ft 413 kts 211°
2026-04-26 01:53 39.86853 -112.68797 28030 ft 413 kts 211°
2026-04-26 01:53 39.84327 -112.70559 28618 ft 410 kts 211°
2026-04-26 01:53 39.81821 -112.72306 29233 ft 407 kts 211°
2026-04-26 01:53 39.79330 -112.74042 29765 ft 405 kts 212°
2026-04-26 01:54 39.76844 -112.75775 30170 ft 405 kts 212°
2026-04-26 01:54 39.74364 -112.77501 30619 ft 402 kts 212°
2026-04-26 01:54 39.71908 -112.79209 31134 ft 398 kts 212°
2026-04-26 01:54 39.69477 -112.80895 31619 ft 395 kts 211°
2026-04-26 01:55 39.66975 -112.82386 32030 ft 398 kts 204°
2026-04-26 01:55 39.64329 -112.83470 32434 ft 398 kts 202°
2026-04-26 01:55 39.61677 -112.84506 32853 ft 396 kts 202°
2026-04-26 01:55 39.59051 -112.85529 33279 ft 394 kts 202°
2026-04-26 01:56 39.56434 -112.86554 33666 ft 392 kts 202°
2026-04-26 01:56 39.51204 -112.88620 33685 ft 396 kts 202°
2026-04-26 01:57 39.45953 -112.90701 33679 ft 392 kts 202°
2026-04-26 01:57 39.40761 -112.92760 33686 ft 389 kts 202°
2026-04-26 01:58 39.35591 -112.94809 33676 ft 388 kts 202°
2026-04-26 01:58 39.30431 -112.96852 33678 ft 388 kts 202°
2026-04-26 01:59 39.25253 -112.98899 33673 ft 389 kts 202°
2026-04-26 01:59 39.20076 -113.00942 33676 ft 390 kts 202°
2026-04-26 02:00 39.14911 -113.02977 33676 ft 391 kts 202°
2026-04-26 02:00 39.09698 -113.05027 33674 ft 392 kts 202°
2026-04-26 02:01 39.04472 -113.07079 33679 ft 393 kts 202°
2026-04-26 02:01 38.99229 -113.09135 33680 ft 394 kts 202°
2026-04-26 02:02 38.93993 -113.11184 33678 ft 394 kts 201°
2026-04-26 02:02 38.88735 -113.13239 33678 ft 394 kts 201°
2026-04-26 02:03 38.83521 -113.15273 33678 ft 394 kts 201°
2026-04-26 02:03 38.79132 -113.16983 33675 ft 394 kts 201°
2026-04-26 02:04 38.73886 -113.19025 33679 ft 393 kts 201°
2026-04-26 02:04 38.68650 -113.21059 33689 ft 393 kts 201°
2026-04-26 02:05 38.63412 -113.23091 33700 ft 393 kts 201°
2026-04-26 02:05 38.58194 -113.25112 33713 ft 392 kts 201°
2026-04-26 02:06 38.52961 -113.27137 33719 ft 392 kts 201°
2026-04-26 02:06 38.47763 -113.29144 33722 ft 392 kts 201°
2026-04-26 02:07 38.42533 -113.31161 33706 ft 393 kts 201°
2026-04-26 02:07 38.37290 -113.33179 33710 ft 393 kts 201°
2026-04-26 02:08 38.32055 -113.35192 33708 ft 393 kts 201°
2026-04-26 02:08 38.26816 -113.37203 33688 ft 393 kts 201°
2026-04-26 02:09 38.21580 -113.39210 33682 ft 393 kts 201°
2026-04-26 02:09 38.16351 -113.41211 33693 ft 393 kts 201°
2026-04-26 02:10 38.11112 -113.43214 33691 ft 393 kts 201°
2026-04-26 02:10 38.05901 -113.45202 33689 ft 393 kts 201°
2026-04-26 02:11 38.00672 -113.47194 33688 ft 392 kts 201°
2026-04-26 02:11 37.95444 -113.49184 33689 ft 392 kts 201°
2026-04-26 02:12 37.90231 -113.51250 33697 ft 391 kts 203°
2026-04-26 02:12 37.85098 -113.53506 33694 ft 390 kts 203°
2026-04-26 02:13 37.79984 -113.55771 33698 ft 390 kts 203°
2026-04-26 02:13 37.74868 -113.58012 33702 ft 389 kts 203°
2026-04-26 02:14 37.69746 -113.60240 33700 ft 388 kts 203°
2026-04-26 02:14 37.64632 -113.62457 33703 ft 388 kts 203°
2026-04-26 02:15 37.59534 -113.64662 33702 ft 387 kts 203°
2026-04-26 02:15 37.54469 -113.66850 33702 ft 387 kts 203°
2026-04-26 02:16 37.49360 -113.69054 33705 ft 387 kts 203°
2026-04-26 02:16 37.44258 -113.71252 33704 ft 387 kts 203°
2026-04-26 02:17 37.39155 -113.73446 33699 ft 388 kts 203°
2026-04-26 02:17 37.34073 -113.75629 33698 ft 387 kts 203°
2026-04-26 02:18 37.28971 -113.77817 33699 ft 387 kts 203°
2026-04-26 02:18 37.23868 -113.80002 33710 ft 387 kts 203°
2026-04-26 02:19 37.18773 -113.82181 33702 ft 385 kts 203°
2026-04-26 02:19 37.13722 -113.84336 33700 ft 382 kts 203°
2026-04-26 02:20 37.08721 -113.86471 33712 ft 383 kts 203°
2026-04-26 02:20 37.03672 -113.88622 33705 ft 384 kts 203°
2026-04-26 02:21 36.98609 -113.90775 33693 ft 385 kts 203°
2026-04-26 02:21 36.93532 -113.92931 33681 ft 385 kts 203°
2026-04-26 02:22 36.88456 -113.95083 33678 ft 385 kts 203°
2026-04-26 02:22 36.83408 -113.97221 33680 ft 385 kts 203°
2026-04-26 02:23 36.78304 -113.99379 33677 ft 384 kts 203°
2026-04-26 02:23 36.73275 -114.01502 33675 ft 384 kts 203°
2026-04-26 02:24 36.68217 -114.03635 33677 ft 383 kts 203°
2026-04-26 02:24 36.63175 -114.05758 33672 ft 382 kts 203°
2026-04-26 02:25 36.58148 -114.07871 33668 ft 381 kts 203°
2026-04-26 02:25 36.53121 -114.09984 33667 ft 381 kts 203°
2026-04-26 02:26 36.48090 -114.12094 33667 ft 381 kts 203°
2026-04-26 02:26 36.43062 -114.14200 33660 ft 381 kts 203°
2026-04-26 02:27 36.38034 -114.16302 33667 ft 381 kts 203°
2026-04-26 02:27 36.33011 -114.18401 33657 ft 381 kts 203°
2026-04-26 02:28 36.27984 -114.20497 33648 ft 380 kts 203°
2026-04-26 02:28 36.23004 -114.22572 33655 ft 379 kts 203°
2026-04-26 02:29 36.18000 -114.24655 33647 ft 379 kts 203°
2026-04-26 02:29 36.12997 -114.26735 33649 ft 379 kts 204°
2026-04-26 02:30 36.08420 -114.29771 33650 ft 371 kts 217°
2026-04-26 02:30 36.04576 -114.33956 33648 ft 368 kts 228°
2026-04-26 02:31 36.01179 -114.38686 33641 ft 367 kts 229°
2026-04-26 02:31 35.97800 -114.43410 33646 ft 367 kts 229°
2026-04-26 02:32 35.94398 -114.48135 33649 ft 368 kts 228°
2026-04-26 02:32 35.90985 -114.52855 33658 ft 369 kts 228°
2026-04-26 02:33 35.87585 -114.57547 33674 ft 369 kts 228°
2026-04-26 02:33 35.84156 -114.62271 33686 ft 370 kts 228°
2026-04-26 02:34 35.80712 -114.67009 33692 ft 371 kts 228°
2026-04-26 02:34 35.77245 -114.71773 33702 ft 371 kts 228°
2026-04-26 02:35 35.73794 -114.76509 33710 ft 371 kts 228°
2026-04-26 02:35 35.70370 -114.81203 33723 ft 371 kts 228°
2026-04-26 02:36 35.66914 -114.85930 33716 ft 371 kts 228°
2026-04-26 02:36 35.63463 -114.90659 33728 ft 371 kts 228°
2026-04-26 02:37 35.60020 -114.95383 33734 ft 370 kts 228°
2026-04-26 02:37 35.56594 -115.00076 33742 ft 368 kts 228°
2026-04-26 02:38 35.53178 -115.04749 33749 ft 367 kts 228°
2026-04-26 02:38 35.49756 -115.09399 33755 ft 366 kts 227°
2026-04-26 02:39 35.46274 -115.13950 33768 ft 365 kts 227°
2026-04-26 02:39 35.42784 -115.18478 33769 ft 365 kts 227°
2026-04-26 02:40 35.39321 -115.22980 33774 ft 365 kts 227°
2026-04-26 02:40 35.35834 -115.27516 33784 ft 365 kts 227°
2026-04-26 02:41 35.32348 -115.32048 33786 ft 365 kts 227°
2026-04-26 02:41 35.28865 -115.36570 33795 ft 365 kts 227°
2026-04-26 02:42 35.25377 -115.41093 33798 ft 365 kts 227°
2026-04-26 02:42 35.21888 -115.45612 33804 ft 365 kts 227°
2026-04-26 02:43 35.16639 -115.52399 33806 ft 367 kts 227°
2026-04-26 02:43 35.13149 -115.56903 33807 ft 367 kts 227°
2026-04-26 02:44 35.09631 -115.61419 33805 ft 365 kts 227°
2026-04-26 02:44 35.07904 -115.63626 33796 ft 353 kts 226°
2026-04-26 02:44 35.06226 -115.65769 33796 ft 348 kts 227°
2026-04-26 02:45 35.02866 -115.70059 33816 ft 352 kts 227°
2026-04-26 02:45 34.99449 -115.74418 33806 ft 356 kts 227°
2026-04-26 02:46 34.96602 -115.78048 33803 ft 356 kts 226°
2026-04-26 02:46 34.93180 -115.82404 33789 ft 355 kts 226°
2026-04-26 02:47 34.89217 -115.87443 33784 ft 354 kts 226°
2026-04-26 02:47 34.86364 -115.91065 33780 ft 353 kts 226°
2026-04-26 02:48 34.82972 -115.95369 33781 ft 351 kts 226°
2026-04-26 02:48 34.79612 -115.99626 33772 ft 350 kts 227°
2026-04-26 02:49 34.76235 -116.03903 33770 ft 350 kts 226°
2026-04-26 02:49 34.72876 -116.08182 33776 ft 349 kts 227°
2026-04-26 02:50 34.69519 -116.12459 33764 ft 349 kts 227°
2026-04-26 02:50 34.66192 -116.16692 33775 ft 348 kts 227°
2026-04-26 02:51 34.62842 -116.20947 33772 ft 348 kts 227°
2026-04-26 02:51 34.59492 -116.25198 33773 ft 348 kts 227°
2026-04-26 02:52 34.56130 -116.29457 33772 ft 348 kts 226°
2026-04-26 02:52 34.52776 -116.33702 33781 ft 349 kts 226°
2026-04-26 02:53 34.49407 -116.37961 33784 ft 350 kts 226°
2026-04-26 02:53 34.46049 -116.42201 33694 ft 353 kts 226°
2026-04-26 02:54 34.44325 -116.44377 33185 ft 362 kts 226°
2026-04-26 02:54 34.42581 -116.46583 32644 ft 361 kts 228°
2026-04-26 02:54 34.41094 -116.49015 32122 ft 360 kts 239°
2026-04-26 02:54 34.39958 -116.51712 31633 ft 361 kts 241°
2026-04-26 02:55 34.38857 -116.54455 31131 ft 363 kts 241°
2026-04-26 02:55 34.37748 -116.57216 30657 ft 366 kts 241°
2026-04-26 02:55 34.36623 -116.59988 30185 ft 368 kts 241°
2026-04-26 02:55 34.35479 -116.62779 29682 ft 371 kts 241°
2026-04-26 02:56 34.34317 -116.65593 29125 ft 375 kts 241°
2026-04-26 02:56 34.33149 -116.68425 28585 ft 378 kts 241°
2026-04-26 02:56 34.31986 -116.71294 28055 ft 381 kts 242°
2026-04-26 02:56 34.30823 -116.74193 27529 ft 384 kts 242°
2026-04-26 02:57 34.29657 -116.77104 27039 ft 386 kts 242°
2026-04-26 02:57 34.28482 -116.80032 26533 ft 388 kts 242°
2026-04-26 02:57 34.27299 -116.82975 26041 ft 390 kts 242°
2026-04-26 02:57 34.26112 -116.85919 25578 ft 391 kts 242°
2026-04-26 02:58 34.24919 -116.88880 25111 ft 391 kts 242°
2026-04-26 02:58 34.23731 -116.91822 24646 ft 386 kts 242°
2026-04-26 02:58 34.22563 -116.94713 24192 ft 379 kts 242°
2026-04-26 02:58 34.21419 -116.97544 23746 ft 373 kts 242°
2026-04-26 02:59 34.20428 -117.00394 23289 ft 372 kts 248°
2026-04-26 02:59 34.19622 -117.03399 22723 ft 371 kts 250°
2026-04-26 02:59 34.18888 -117.06346 22543 ft 359 kts 250°
2026-04-26 02:59 34.18181 -117.09117 22456 ft 343 kts 249°
2026-04-26 03:00 34.17458 -117.11837 22047 ft 336 kts 249°
2026-04-26 03:00 34.16737 -117.14503 21578 ft 331 kts 249°
2026-04-26 03:00 34.16020 -117.17124 21112 ft 326 kts 248°
2026-04-26 03:00 34.15309 -117.19706 20665 ft 322 kts 248°
2026-04-26 03:01 34.14605 -117.22257 20223 ft 319 kts 248°
2026-04-26 03:01 34.13905 -117.24793 19772 ft 316 kts 248°
2026-04-26 03:01 34.13215 -117.27297 19347 ft 313 kts 248°
2026-04-26 03:01 34.12531 -117.29777 18925 ft 310 kts 248°
2026-04-26 03:02 34.11850 -117.32246 18418 ft 310 kts 248°
2026-04-26 03:02 34.11176 -117.34684 17866 ft 311 kts 248°
2026-04-26 03:02 34.10493 -117.37158 17321 ft 310 kts 249°
2026-04-26 03:02 34.09856 -117.39635 16794 ft 309 kts 250°
2026-04-26 03:03 34.09249 -117.42097 16279 ft 303 kts 251°
2026-04-26 03:03 34.08656 -117.44500 15768 ft 295 kts 251°
2026-04-26 03:03 34.08073 -117.46838 15263 ft 288 kts 251°
2026-04-26 03:03 34.07500 -117.49124 14788 ft 281 kts 252°
2026-04-26 03:04 34.06939 -117.51349 14447 ft 274 kts 252°
2026-04-26 03:04 34.06381 -117.53534 14102 ft 271 kts 252°
2026-04-26 03:04 34.05825 -117.55704 13748 ft 272 kts 252°
2026-04-26 03:04 34.05264 -117.57895 13358 ft 274 kts 252°
2026-04-26 03:05 34.04712 -117.60055 12983 ft 272 kts 252°
2026-04-26 03:05 34.04169 -117.62203 12658 ft 270 kts 252°
2026-04-26 03:05 34.03612 -117.64414 12295 ft 273 kts 252°
2026-04-26 03:05 34.03058 -117.66619 11936 ft 275 kts 252°
2026-04-26 03:06 34.02640 -117.68858 11597 ft 275 kts 261°
2026-04-26 03:06 34.02441 -117.71148 11245 ft 274 kts 262°
2026-04-26 03:06 34.02236 -117.73425 10880 ft 271 kts 261°
2026-04-26 03:06 34.02000 -117.75679 10525 ft 269 kts 261°
2026-04-26 03:07 34.01759 -117.77887 10172 ft 267 kts 261°
2026-04-26 03:07 34.01522 -117.80075 9813 ft 259 kts 261°
2026-04-26 03:07 34.01295 -117.82186 9451 ft 251 kts 261°
2026-04-26 03:07 34.01074 -117.84254 9132 ft 248 kts 261°
2026-04-26 03:08 34.00852 -117.86322 8809 ft 250 kts 261°
2026-04-26 03:08 34.00627 -117.88422 8479 ft 255 kts 261°
2026-04-26 03:08 34.00400 -117.90548 8130 ft 256 kts 262°
2026-04-26 03:08 34.00174 -117.92675 7782 ft 255 kts 262°
2026-04-26 03:09 33.99950 -117.94786 7441 ft 254 kts 262°
2026-04-26 03:09 33.99727 -117.96890 7104 ft 253 kts 262°
2026-04-26 03:09 33.99505 -117.98980 6785 ft 252 kts 262°
2026-04-26 03:09 33.99283 -118.01069 6456 ft 251 kts 262°
2026-04-26 03:10 33.99063 -118.03164 6097 ft 251 kts 262°
2026-04-26 03:10 33.98843 -118.05249 5766 ft 250 kts 262°
2026-04-26 03:10 33.98624 -118.07324 5430 ft 250 kts 262°
2026-04-26 03:10 33.98411 -118.09352 5113 ft 249 kts 262°
2026-04-26 03:11 33.98193 -118.11422 4784 ft 248 kts 262°
2026-04-26 03:11 33.97980 -118.13458 4440 ft 241 kts 262°
2026-04-26 03:11 33.97774 -118.15431 4129 ft 233 kts 262°
2026-04-26 03:11 33.97575 -118.17330 3841 ft 225 kts 263°
2026-04-26 03:12 33.97383 -118.19174 3554 ft 218 kts 263°
2026-04-26 03:12 33.97196 -118.20964 3270 ft 212 kts 263°
2026-04-26 03:12 33.97015 -118.22707 2999 ft 209 kts 263°
2026-04-26 03:12 33.96837 -118.24418 2726 ft 208 kts 263°
2026-04-26 03:13 33.96658 -118.26143 2454 ft 208 kts 263°
2026-04-26 03:13 33.96480 -118.27863 2199 ft 204 kts 263°
2026-04-26 03:13 33.96306 -118.29542 1916 ft 199 kts 263°
2026-04-26 03:13 33.96137 -118.31179 1647 ft 194 kts 263°
2026-04-26 03:14 33.95973 -118.32763 1390 ft 187 kts 263°
2026-04-26 03:14 33.95817 -118.34283 1144 ft 179 kts 263°
2026-04-26 03:14 33.95667 -118.35741 902 ft 170 kts 262°
2026-04-26 03:14 33.95526 -118.37104 682 ft 158 kts 262°
2026-04-26 03:15 33.95393 -118.38381 455 ft 150 kts 261°
2026-04-26 03:15 33.95267 -118.39618 281 ft 148 kts 261°
2026-04-26 03:15 33.95144 -118.40810 142 ft 137 kts 261°
2026-04-26 03:15 33.95045 -118.41809 125 ft 93 kts 263°
2026-04-26 03:16 33.94991 -118.42327 125 ft 40 kts 261°
2026-04-26 03:16 33.94902 -118.42606 121 ft 22 kts 234°
2026-04-26 03:16 33.94801 -118.42729 122 ft 20 kts 212°
2026-04-26 03:16 33.94681 -118.42777 122 ft 11 kts 181°
2026-04-26 03:17 33.94643 -118.42747 123 ft 6 kts 115°
2026-04-26 03:17 33.94639 -118.42721 124 ft 0 kts 93°
2026-04-26 03:18 33.94639 -118.42710 123 ft 3 kts 92°
2026-04-26 03:19 33.94640 -118.42668 125 ft 7 kts 86°
2026-04-26 03:19 33.94647 -118.42590 123 ft 11 kts 83°
2026-04-26 03:19 33.94657 -118.42484 125 ft 14 kts 84°
2026-04-26 03:19 33.94671 -118.42357 125 ft 16 kts 81°
2026-04-26 03:20 33.94685 -118.42216 123 ft 17 kts 84°
2026-04-26 03:20 33.94699 -118.42073 125 ft 17 kts 84°
2026-04-26 03:20 33.94715 -118.41934 124 ft 16 kts 84°
2026-04-26 03:20 33.94728 -118.41801 123 ft 16 kts 83°
2026-04-26 03:21 33.94741 -118.41673 125 ft 15 kts 83°
2026-04-26 03:21 33.94754 -118.41551 125 ft 14 kts 83°
2026-04-26 03:21 33.94769 -118.41433 125 ft 14 kts 72°
2026-04-26 03:21 33.94788 -118.41322 125 ft 14 kts 91°
2026-04-26 03:22 33.94785 -118.41279 123 ft 1 kts 164°
2026-04-26 03:22 33.94773 -118.41282 121 ft 2 kts 188°
2026-04-26 03:22 33.94765 -118.41284 121 ft 0 kts 188°
2026-04-26 03:22 33.94763 -118.41284 125 ft 2 kts 188°
2026-04-26 03:23 33.94739 -118.41285 123 ft 5 kts 171°
2026-04-26 03:23 33.94713 -118.41251 125 ft 7 kts 106°
2026-04-26 03:23 33.94720 -118.41180 124 ft 10 kts 76°
2026-04-26 03:23 33.94732 -118.41089 121 ft 12 kts 84°
2026-04-26 03:24 33.94744 -118.40984 125 ft 10 kts 79°
2026-04-26 03:24 33.94710 -118.40917 125 ft 11 kts 160°
2026-04-26 03:24 33.94631 -118.40903 123 ft 12 kts 172°
2026-04-26 03:24 33.94570 -118.40893 123 ft 9 kts 169°
2026-04-26 03:25 33.94548 -118.40841 125 ft 2 kts 63°
2026-04-26 03:25 33.94558 -118.40837 123 ft 1 kts 348°
2026-04-26 03:25 33.94565 -118.40842 120 ft 1 kts 334°
2026-04-26 03:25 33.94572 -118.40846 121 ft 1 kts 334°
2026-04-26 03:26 33.94577 -118.40845 123 ft 1 kts
2026-04-26 03:26 33.94582 -118.40844 123 ft 1 kts 11°
2026-04-26 03:26 33.94586 -118.40843 123 ft 1 kts 18°
2026-04-26 03:26 33.94589 -118.40841 123 ft 1 kts 19°
2026-04-26 03:27 33.94593 -118.40839 122 ft 1 kts 28°
2026-04-26 03:27 33.94596 -118.40835 122 ft 1 kts 31°
2026-04-26 03:27 33.94601 -118.40831 124 ft 1 kts 39°
2026-04-26 03:27 33.94601 -118.40830 124 ft 0 kts 48°